This demonstration page uses our WeatherBlox Daily Observations layout. Learn more.

Left ArrowRight Arrow

Hourly Observations for November 19, 2018

Temp ( °F °C ) Dew Point ( °F °C ) Humidity (%) Winds ( mph kmh ) Pressure ( in mb ) Visibility ( mi km ) Precip ( " mm )
12:53 am 00:53 Clear 32 0 28 -2.2 85 85 WNW 3 6 30.17 1022 10 16 0.00 0.00
1:53 am 01:53 Clear 30 -1.1 27 -2.8 88 88 NNW 6 9 30.16 1022 9 14 0.00 0.00
2:53 am 02:53 Clear 29 -1.7 26 -3.3 89 89 NNW 5 7 30.15 1021 9 14 0.00 0.00
3:53 am 03:53 Clear 27 -2.8 24 -4.4 89 89 N 5 7 30.15 1021 8 13 0.00 0.00
4:53 am 04:53 Clear 27 -2.8 24 -4.4 89 89 N 5 7 30.14 1021 8 13 0.00 0.00
5:53 am 05:53 Clear 26 -3.3 24 -4.4 92 92 N 6 9 30.15 1021 8 13 0.00 0.00
6:53 am 06:53 Clear 26 -3.3 23 -5 88 88 NNW 3 6 30.17 1022 8 13 0.00 0.00
7:24 am 07:24 Mostly Cloudy 27 -2.8 24 -4.4 89 89 N 6 9 30.33 1027 8 13 0.00 0.00
7:53 am 07:53 Cloudy 29 -1.7 26 -3.3 89 89 NNW 3 6 30.19 1022 7 11 0.00 0.00
8:41 am 08:41 Cloudy 32 0 29 -1.7 88 88 NNW 3 6 30.30 1026 7 11 0.00 0.00
8:53 am 08:53 Cloudy 33 0.6 29 -1.7 85 85 Calm 30.20 1023 7 11 0.00 0.00
9:53 am 09:53 Cloudy 38 3.3 33 0.6 83 83 Calm 30.21 1023 8 13 0.00 0.00
10:36 am 10:36 Partly Cloudy 42 5.6 33 0.6 71 71 Calm 30.24 1024 9 14 0.00 0.00
10:53 am 10:53 Sunny 45 7.2 34 1.1 66 66 Calm 30.20 1023 9 14 0.00 0.00
11:53 am 11:53 Sunny 49 9.4 35 1.7 59 59 WSW 3 6 30.18 1022 10 16 0.00 0.00
12:53 pm 12:53 Sunny 53 11.7 35 1.7 51 51 VRB 5 7 30.14 1021 10 16 0.00 0.00
1:53 pm 13:53 Sunny 58 14.4 35 1.7 42 42 Calm 30.10 1019 10 16 0.00 0.00
2:53 pm 14:53 Sunny 60 15.6 34 1.1 38 38 W 3 6 30.08 1019 10 16 0.00 0.00
3:53 pm 15:53 Sunny 63 17.2 32 0 31 31 Calm 30.08 1019 10 16 0.00 0.00
4:53 pm 16:53 Sunny 64 17.8 30 -1.1 28 28 NNE 3 6 30.09 1019 10 16 0.00 0.00
5:53 pm 17:53 Clear 59 15 31 -0.6 35 35 Calm 30.11 1020 10 16 0.00 0.00
6:53 pm 18:53 Clear 50 10 31 -0.6 48 48 SW 6 9 30.15 1021 10 16 0.00 0.00
7:53 pm 19:53 Clear 44 6.7 34 1.1 68 68 VRB 3 6 30.20 1023 10 16 0.00 0.00
8:53 pm 20:53 Clear 46 7.8 34 1.1 63 63 SE 6 9 30.21 1023 10 16 0.00 0.00
9:53 pm 21:53 Clear 43 6.1 34 1.1 71 71 SE 5 7 30.23 1024 10 16 0.00 0.00
10:53 pm 22:53 Clear 39 3.9 33 0.6 79 79 N 6 9 30.24 1024 10 16 0.00 0.00
11:53 pm 23:53 Clear 37 2.8 33 0.6 86 86 N 8 13 30.25 1025 10 16 0.00 0.00

Powered by AerisWeather